Location: Feydey
(46.3431°N, 7.0106°E)
Time: 09:26:37
(UTC+00:00)

Cosmos 1850 Rocket - Pass Details

Date: 20 June 2021
Orbit: 755 x 785 km, 74.0° (Epoch: 04 August)

Event Time Altitude Azimuth Distance (km) Brightness Sun altitude
Rises 20:20:06 0° 335° (NNW) 3,271 8.9 -7.6°
Reaches altitude 10° 20:22:31 10° 332° (NNW) 2,335 8.0 -7.9°
Maximum altitude 20:27:45 63° 253° (WSW) 861 4.4 -8.5°
Drops below altitude 10° 20:32:54 10° 173° (S) 2,299 6.0 -9.1°
Enters shadow 20:33:40 - 172° (S) 2,591 6.2 -9.2°
